Date String (YYYY-MM-DD hh:mm:ss) UTC,Instrument flags,Ambient pressure (hPa),Sample flow (lpm),Bypass flow (lpm),Sample temperature (°C),Ambient temperature (°C),ASC tube jacket temperature (°C),LED temperature (°C),Box temperature (°C),Sample RH (%),Span deviation,Mass concentration (μg/m³),Mass concentration (μg/m³),Mass concentration (μg/m³)
DateTimeUTC,F1_M11,P_M11,Q1_M11,Q2_M11,T1_M11,T2_M11,T3_M11,T4_M11,T5_M11,U1_M11,ZSPAN_M11,X0_M11,X2_M11,X1_M11
2023-04-14 06:00:00,,0815.6,4.99,0.00,28.4,26.7,00.0,36.7,29.9,08.3,0000.0,0004.08,0001.85,0001.24
2023-04-14 06:01:00,,0815.6,4.99,0.00,28.4,26.7,00.0,36.7,29.9,08.4,0000.0,0005.65,0001.92,0001.26
2023-04-14 06:02:00,,0815.6,5.00,0.00,28.4,26.7,00.0,36.7,30.0,08.4,0000.0,0006.54,0001.98,0001.27
2023-04-14 06:03:00,,0815.6,5.01,0.00,28.4,26.8,00.0,36.7,29.9,08.4,0000.0,0006.54,0002.01,0001.28
2023-04-14 06:04:00,,0815.6,5.01,0.00,28.4,26.8,00.0,36.7,29.9,08.4,0000.0,0006.76,0002.02,0001.27
2023-04-14 06:05:00,,0815.6,5.00,0.00,28.4,26.8,00.0,36.7,29.9,08.4,0000.0,0006.90,0002.07,0001.27
2023-04-14 06:06:00,,0815.6,5.01,0.00,28.4,26.8,00.0,36.7,30.0,08.4,0000.0,0007.31,0002.10,0001.27
2023-04-14 06:07:00,,0815.7,5.00,0.00,28.4,26.8,00.0,36.7,30.0,08.5,0000.0,0007.40,0002.12,0001.27
2023-04-14 06:08:00,,0815.7,5.00,0.00,28.4,26.8,00.0,36.7,30.0,08.4,0000.0,0007.46,0002.14,0001.27
2023-04-14 06:09:00,,0815.7,5.00,0.00,28.4,26.8,00.0,36.7,29.9,08.4,0000.0,0007.51,0002.15,0001.27
2023-04-14 06:10:00,,0815.7,5.00,0.00,28.4,26.8,00.0,36.7,29.9,08.4,0000.0,0007.44,0002.11,0001.27
2023-04-14 06:11:00,,0815.8,4.99,0.00,28.4,26.7,00.0,36.7,29.9,08.4,0000.0,0006.89,0002.08,0001.26
2023-04-14 06:12:00,,0815.8,5.00,0.00,28.4,26.7,00.0,36.7,29.9,08.5,0000.0,0005.55,0002.05,0001.26
2023-04-14 06:13:00,,0815.8,5.00,0.00,28.4,26.7,00.0,36.7,29.9,08.4,0000.0,0004.50,0002.03,0001.26
2023-04-14 06:14:00,,0815.8,5.02,0.00,28.4,26.7,00.0,36.7,29.9,08.4,0000.0,0004.49,0002.02,0001.25
2023-04-14 06:15:00,,0815.8,5.00,0.00,28.4,26.7,00.0,36.7,29.9,08.5,0000.0,0004.29,0002.05,0001.25
2023-04-14 06:16:00,,0815.8,4.99,0.00,28.4,26.7,00.0,36.7,29.9,08.4,0000.0,0004.30,0002.05,0001.26
2023-04-14 06:17:00,,0815.9,5.00,0.00,28.4,26.7,00.0,36.7,29.9,08.3,0000.0,0004.02,0002.08,0001.28
2023-04-14 06:18:00,,0815.9,5.02,0.00,28.4,26.7,00.0,36.7,29.9,08.3,0000.0,0003.93,0002.09,0001.28
2023-04-14 06:19:00,,0816.0,5.00,0.00,28.4,26.7,00.0,36.7,29.9,08.3,0000.0,0003.98,0002.12,0001.28
2023-04-14 06:20:00,,0816.1,5.00,0.00,28.4,26.8,00.0,36.7,30.0,08.3,0000.0,0004.52,0002.08,0001.28
2023-04-14 06:21:00,,0816.1,5.00,0.00,28.4,26.8,00.0,36.7,30.0,08.5,0000.0,0004.77,0002.04,0001.28
2023-04-14 06:22:00,,0816.2,5.00,0.00,28.4,26.8,00.0,36.7,30.0,08.6,0000.0,0004.57,0001.99,0001.27
2023-04-14 06:23:00,,0816.2,5.00,0.00,28.4,26.8,00.0,36.7,30.0,08.7,0000.0,0004.67,0002.00,0001.27
2023-04-14 06:24:00,,0816.2,5.01,0.00,28.4,26.8,00.0,36.7,30.0,09.2,0000.0,0004.97,0002.11,0001.28
2023-04-14 06:25:00,,0816.2,5.00,0.00,28.4,26.8,00.0,36.7,30.0,09.3,0000.0,0005.73,0002.21,0001.31
2023-04-14 06:26:00,,0816.3,5.00,0.00,28.4,26.8,00.0,36.8,30.0,09.5,0000.0,0007.18,0002.25,0001.35
2023-04-14 06:27:00,,0816.3,5.00,0.00,28.4,26.7,00.0,36.8,29.9,09.6,0000.0,0007.48,0002.33,0001.37
2023-04-14 06:28:00,,0816.4,5.00,0.00,28.4,26.7,00.0,36.7,29.9,09.7,0000.0,0008.00,0002.43,0001.40
2023-04-14 06:29:00,,0816.5,5.02,0.00,28.4,26.7,00.0,36.7,29.9,10.0,0000.0,0008.21,0002.53,0001.42
2023-04-14 06:30:00,,0816.5,5.00,0.00,28.4,26.7,00.0,36.7,29.9,10.2,0000.0,0008.63,0002.59,0001.46
2023-04-14 06:31:00,,0816.5,4.99,0.00,28.4,26.7,00.0,36.7,29.9,10.4,0000.0,0008.54,0002.70,0001.50
2023-04-14 06:32:00,,0816.5,4.99,0.00,28.4,26.7,00.0,36.7,29.9,11.2,0000.0,0010.72,0002.94,0001.56
2023-04-14 06:33:00,,0816.6,5.01,0.00,28.4,26.7,00.0,36.7,29.9,11.7,0000.0,0012.56,0003.14,0001.64
2023-04-14 06:34:00,,0816.6,5.00,0.00,28.4,26.7,00.0,36.7,29.9,12.0,0000.0,0014.17,0003.23,0001.71
2023-04-14 06:35:00,,0816.6,4.99,0.00,28.4,26.7,00.0,36.7,29.9,12.3,0000.0,0015.71,0003.35,0001.76
2023-04-14 06:36:00,,0816.7,5.00,0.00,28.4,26.7,00.0,36.7,29.9,12.6,0000.0,0017.17,0003.49,0001.82
2023-04-14 06:37:00,,0816.7,5.00,0.00,28.4,26.6,00.0,36.7,29.9,12.8,0000.0,0018.37,0003.63,0001.88
2023-04-14 06:38:00,,0816.8,5.00,0.00,28.4,26.6,00.0,36.7,29.9,12.9,0000.0,0019.82,0003.74,0001.92
2023-04-14 06:39:00,,0816.8,4.99,0.00,28.4,26.6,00.0,36.7,29.9,13.0,0000.0,0020.58,0003.85,0001.98
2023-04-14 06:40:00,,0816.8,4.99,0.00,28.4,26.6,00.0,36.7,29.9,13.1,0000.0,0021.46,0004.04,0002.05
2023-04-14 06:41:00,,0816.9,5.00,0.00,28.4,26.6,00.0,36.7,29.9,13.2,0000.0,0023.10,0004.16,0002.09
2023-04-14 06:42:00,,0816.9,5.01,0.00,28.3,26.6,00.0,36.7,29.9,13.3,0000.0,0025.33,0004.29,0002.15
2023-04-14 06:43:00,,0816.9,5.00,0.00,28.3,26.6,00.0,36.7,29.9,13.4,0000.0,0026.03,0004.40,0002.18
2023-04-14 06:44:00,,0816.9,4.99,0.00,28.3,26.6,00.0,36.7,29.9,13.4,0000.0,0028.16,0004.61,0002.22
2023-04-14 06:45:00,,0816.9,5.00,0.00,28.3,26.5,00.0,36.7,29.8,13.4,0000.0,0029.06,0004.82,0002.24
2023-04-14 06:46:00,,0817.0,5.01,0.00,28.3,26.5,00.0,36.7,29.8,13.4,0000.0,0032.88,0004.96,0002.26
2023-04-14 06:47:00,,0817.0,5.01,0.00,28.3,26.5,00.0,36.7,29.8,13.5,0000.0,0036.92,0005.03,0002.26
2023-04-14 06:48:00,,0817.0,5.01,0.00,28.3,26.5,00.0,36.7,29.8,13.5,0000.0,0039.60,0005.09,0002.26
2023-04-14 06:49:00,,0817.1,5.00,0.00,28.3,26.5,00.0,36.7,29.8,13.5,0000.0,0043.66,0005.18,0002.24
2023-04-14 06:50:00,,0817.1,5.00,0.00,28.3,26.5,00.0,36.7,29.8,13.6,0000.0,0046.26,0005.34,0002.23
2023-04-14 06:51:00,,0817.0,4.99,0.00,28.2,26.5,00.0,36.7,29.8,13.6,0000.0,0047.72,0005.45,0002.22
2023-04-14 06:52:00,,0817.1,4.99,0.00,28.2,26.5,00.0,36.6,29.7,13.6,0000.0,0049.52,0005.68,0002.20
2023-04-14 06:53:00,,0817.1,5.00,0.00,28.2,26.4,00.0,36.6,29.7,13.6,0000.0,0052.08,0005.91,0002.18
2023-04-14 06:54:00,,0817.1,5.00,0.00,28.2,26.4,00.0,36.6,29.7,13.6,0000.0,0052.41,0006.01,0002.17
2023-04-14 06:55:00,,0817.1,5.00,0.00,28.2,26.4,00.0,36.6,29.7,13.6,0000.0,0050.78,0006.05,0002.16
2023-04-14 06:56:00,,0817.1,5.00,0.00,28.2,26.4,00.0,36.6,29.7,13.6,0000.0,0053.34,0006.07,0002.14
2023-04-14 06:57:00,,0817.1,4.99,0.00,28.2,26.3,00.0,36.6,29.7,13.6,0000.0,0054.02,0006.14,0002.14
2023-04-14 06:58:00,,0817.1,5.00,0.00,28.2,26.3,00.0,36.6,29.7,13.7,0000.0,0052.71,0006.28,0002.14
2023-04-14 06:59:00,,0817.1,5.00,0.00,28.2,26.3,00.0,36.6,29.7,13.4,0000.0,0051.75,0006.45,0002.15
